This demonstration page uses our WeatherBlox Daily Observations layout. Learn more.

40.92945, -100.16068

Hourly Observations for December 13, 2016

Temp ( °F °C ) Dew Point ( °F °C ) Humidity (%) Winds ( mph kmh ) Pressure ( in mb ) Visibility ( mi km ) Precip ( " mm )
12:15 am 00:15 Partly Cloudy 11 -11.5 4 -15.5 73 73 N 7 11 30.39 1029 10 16.0934 N/A
12:35 am 00:35 Partly Cloudy 11 -11.6 4 -15.5 73 73 N 7 11 30.39 1029 10 16.0934 N/A
12:55 am 00:55 Clear 11 -11.6 4 -15.3 74 74 N 9 15 30.39 1029 10 16.0934 N/A
1:15 am 01:15 Clear 11 -11.6 4 -15.4 74 74 N 9 15 30.39 1029 10 16.0934 N/A
1:35 am 01:35 Partly Cloudy 11 -11.7 4 -15.4 74 74 N 12 19 30.39 1029 10 16.0934 N/A
1:55 am 01:55 Mostly Cloudy 11 -11.7 4 -15.4 74 74 NNW 13 20 30.42 1030 10 16.0934 N/A
2:15 am 02:15 Partly Cloudy 11 -11.7 4 -15.3 75 75 N 9 15 30.42 1030 10 16.0934 N/A
2:35 am 02:35 Partly Cloudy 10 -12 4 -15.4 76 76 N 8 13 30.45 1031 10 16.0934 N/A
2:55 am 02:55 Partly Cloudy 10 -12.3 4 -15.5 77 77 N 10 17 30.45 1031 10 16.0934 N/A
3:15 am 03:15 Clear 10 -12.4 4 -15.5 78 78 N 9 15 30.45 1031 10 16.0934 N/A
3:35 am 03:35 Clear 10 -12.5 4 -15.5 79 79 N 10 17 30.42 1030 10 16.0934 N/A
3:55 am 03:55 Partly Cloudy 10 -12.3 4 -15.8 75 75 N 10 17 30.42 1030 10 16.0934 N/A
4:15 am 04:15 Partly Cloudy 9 -12.6 2 -16.9 71 71 N 14 22 30.45 1031 10 16.0934 N/A
4:35 am 04:35 Clear 9 -13 1 -17.5 69 69 N 10 17 30.45 1031 10 16.0934 N/A
4:55 am 04:55 Clear 8 -13.2 0 -18 68 68 N 9 15 30.45 1031 10 16.0934 N/A
5:15 am 05:15 Clear 8 -13.6 0 -18 70 70 NNW 10 17 30.48 1032 10 16.0934 N/A
5:35 am 05:35 Clear 7 -14.1 -1 -18.2 71 71 NNW 7 11 30.48 1032 10 16.0934 N/A
5:55 am 05:55 Clear 6 -14.3 -1 -18.1 73 73 NNW 7 11 30.5 1033 10 16.0934 N/A
6:15 am 06:15 Clear 6 -14.7 -1 -18.2 75 75 NNW 7 11 30.5 1033 10 16.0934 N/A
6:35 am 06:35 Clear 5 -15.2 -1 -18.5 76 76 NW 6 9 30.5 1033 10 16.0934 N/A
6:55 am 06:55 Clear 3 -16 -2 -18.9 79 79 NW 7 11 30.5 1033 10 16.0934 N/A
7:15 am 07:15 Clear 4 -15.7 -1 -18.5 79 79 WNW 7 11 30.53 1034 10 16.0934 N/A
7:35 am 07:35 Clear 4 -15.5 -1 -18.6 77 77 NW 5 7 30.53 1034 10 16.0934 N/A
7:55 am 07:55 Clear 4 -15.6 -1 -18.6 78 78 WNW 6 9 30.53 1034 10 16.0934 N/A
8:15 am 08:15 Sunny 4 -15.6 -1 -18.4 79 79 WNW 6 9 30.53 1034 10 16.0934 N/A
8:35 am 08:35 Sunny 5 -14.9 0 -18 77 77 W 6 9 30.53 1034 10 16.0934 N/A
8:55 am 08:55 Sunny 8 -13.6 1 -17.5 73 73 WNW 8 13 30.53 1034 10 16.0934 N/A
9:15 am 09:15 Sunny 9 -12.8 1 -17.1 70 70 WNW 8 13 30.53 1034 10 16.0934 N/A
9:35 am 09:35 Sunny 10 -12.1 2 -16.6 69 69 NW 5 7 30.53 1034 10 16.0934 N/A
9:55 am 09:55 Sunny 11 -11.5 2 -16.5 67 67 N 3 6 30.53 1034 10 16.0934 N/A
10:15 am 10:15 Sunny 12 -11 2 -16.5 64 64 NNE 3 6 30.5 1033 10 16.0934 N/A
10:35 am 10:35 Sunny 13 -10.5 3 -16.2 63 63 Calm 30.5 1033 10 16.0934 N/A
10:55 am 10:55 Sunny 14 -10 3 -16.1 61 61 Calm 30.48 1032 10 16.0934 N/A
11:15 am 11:15 Sunny 15 -9.5 3 -16.1 59 59 Calm 30.5 1033 10 16.0934 N/A
11:35 am 11:35 Sunny 17 -8.5 4 -15.7 56 56 Calm 30.45 1031 10 16.0934 N/A
11:55 am 11:55 Sunny 17 -8.1 4 -15.7 55 55 Calm 30.42 1030 10 16.0934 N/A
12:15 pm 12:15 Sunny 20 -6.9 5 -15.2 52 52 SSW 6 9 30.42 1030 10 16.0934 N/A
12:35 pm 12:35 Sunny 20 -6.4 5 -15.1 50 50 S 3 6 30.42 1030 10 16.0934 N/A
12:55 pm 12:55 Sunny 21 -6.1 5 -15 50 50 SW 6 9 30.36 1028 10 16.0934 N/A
1:15 pm 13:15 Sunny 22 -5.8 4 -15.3 47 47 SW 6 9 30.36 1028 10 16.0934 N/A
1:35 pm 13:35 Sunny 23 -5.2 4 -15.3 45 45 SW 6 9 30.33 1027 10 16.0934 N/A
2:15 pm 14:15 Sunny 24 -4.6 3 -16 41 41 S 8 13 30.33 1027 10 16.0934 N/A
3:15 pm 15:15 Sunny 24 -4.3 3 -16 40 40 SW 5 7 30.3 1026 10 16.0934 N/A
3:35 pm 15:35 Sunny 25 -4 3 -16 39 39 WSW 7 11 30.27 1025 10 16.0934 N/A
4:15 pm 16:15 Sunny 25 -4.1 3 -16.1 39 39 S 8 13 30.24 1024 10 16.0934 N/A
4:55 pm 16:55 Sunny 23 -5 3 -16 42 42 SSW 7 11 30.27 1025 10 16.0934 N/A
5:55 pm 17:55 Clear 18 -7.8 3 -16 52 52 SSW 3 6 30.3 1026 10 16.0934 N/A
6:15 pm 18:15 Clear 17 -8.3 3 -16.2 53 53 S 5 7 30.3 1026 10 16.0934 N/A
6:55 pm 18:55 Partly Cloudy 16 -8.8 3 -16 56 56 S 7 11 30.3 1026 10 16.0934 N/A
7:15 pm 19:15 Clear 15 -9.6 4 -15.7 61 61 S 6 9 30.3 1026 10 16.0934 N/A
7:35 pm 19:35 Mostly Cloudy 16 -8.8 6 -14.4 64 64 S 5 7 30.3 1026 10 16.0934 N/A
7:55 pm 19:55 Cloudy 18 -7.7 6 -14.3 60 60 SSE 3 6 30.3 1026 10 16.0934 N/A
8:15 pm 20:15 Cloudy 18 -7.7 6 -14.5 59 59 Calm 30.3 1026 10 16.0934 N/A
8:35 pm 20:35 Cloudy 19 -7.5 6 -14.6 57 57 SE 3 6 30.3 1026 10 16.0934 N/A
8:55 pm 20:55 Cloudy 18 -7.6 6 -14.4 59 59 SE 3 6 30.3 1026 10 16.0934 N/A
9:15 pm 21:15 Cloudy 19 -7.1 6 -14.5 56 56 SSE 7 11 30.27 1025 10 16.0934 N/A
9:35 pm 21:35 Cloudy 18 -7.7 6 -14.7 58 58 S 7 11 30.27 1025 10 16.0934 N/A
9:55 pm 21:55 Cloudy 17 -8.5 6 -14.5 62 62 Calm 30.3 1026 10 16.0934 N/A
10:15 pm 22:15 Mostly Cloudy 16 -8.7 5 -15 61 61 SSE 3 6 30.3 1026 10 16.0934 N/A
10:35 pm 22:35 Partly Cloudy 15 -9.4 5 -14.9 65 65 SE 5 7 30.27 1025 10 16.0934 N/A
10:55 pm 22:55 Partly Cloudy 15 -9.5 5 -15.1 64 64 SSE 5 7 30.27 1025 10 16.0934 N/A
11:15 pm 23:15 Clear 15 -9.3 4 -15.3 62 62 S 7 11 30.27 1025 10 16.0934 N/A
11:35 pm 23:35 Clear 14 -9.8 5 -15.2 65 65 SSE 5 7 30.27 1025 10 16.0934 N/A
11:55 pm 23:55 Clear 15 -9.5 5 -15.2 64 64 Calm 30.27 1025 10 16.0934 N/A

Powered by AerisWeather